Theta_e
316 315 313 313 312 313 315 316 320 326 326 326 326 326 323 322 323 324 322 321 322 321
313 314 314 314 313 312 314 318 316 317 318 319 321 322 320 320 319 319 319 320 321 319
313 314 313 314 312 313 313 317 318 319 319 319 318 317 318 318 318 319 318 316 313 311
313 313 312 312 313 313 313 315 316 317 318 317 316 318 320 319 320 319 318 318 318 316
314 311 310 310 311 313 313 314 315 316 317 317 317 317 317 315 315 315 314 314 314 313
312 309 308 309 310 311 311 312 313 314 315 316 316 314 312 311 310 308 308 309 309 309
309 308 307 309 310 310 309 309 309 311 313 314 314 313 310 308 304 302 301 301 302 305
311 308 307 309 309 309 308 309 307 306 307 310 312 312 306 303 299 296 296 296 298 301
313 310 307 308 308 308 307 305 305 304 304 305 309 303 304 301 297 295 293 293 293 296
315 310 308 308 308 305 303 303 302 301 301 302 304 301 301 302 297 293 292 291 291 292
315 311 309 308 307 306 302 301 300 300 300 300 301 300 300 301 298 296 295 295 295 292
317 314 310 308 307 307 304 302 301 301 300 299 299 298 300 303 303 302 301 302 301 296
319 316 312 309 308 309 307 306 304 301 300 300 299 296 298 301 302 300 300 299 300 300
320 318 316 313 310 310 310 309 306 303 301 299 297 298 296 298 302 302 299 298 296 295
Wind_Speed
7 4 4 5 4 4 3 3 7 5 3 5 6 6 6 4 4 6 5 8 5 4
6 7 5 5 4 3 4 4 7 7 6 6 6 6 8 6 6 6 5 6 6 5
6 6 6 6 5 6 5 6 7 7 7 7 7 8 9 8 7 10 5 4 7 4
5 6 6 6 4 4 5 7 7 7 7 7 8 8 11 10 11 11 9 7 8 7
6 5 6 5 5 4 5 5 6 6 7 7 7 8 10 10 8 10 9 7 10 7
5 5 5 5 5 5 6 6 6 8 8 7 7 9 7 8 8 8 7 6 8 6
7 6 4 4 6 7 6 7 7 7 6 6 7 7 7 8 7 7 6 6 6 6
7 6 5 5 6 7 7 6 7 8 6 6 7 5 8 7 7 8 7 6 5 5
7 7 6 6 7 7 7 7 7 7 7 6 4 8 10 8 7 6 7 7 5 5
7 7 6 6 7 7 7 6 7 6 7 6 5 7 10 11 6 6 6 6 5 4
10 8 7 7 7 6 5 6 5 5 6 6 4 9 11 9 7 5 5 5 6 5
11 10 8 8 8 6 6 5 5 5 7 7 5 9 12 10 6 5 7 6 7 7
12 12 11 9 9 5 5 6 5 6 7 8 8 10 13 10 5 7 5 5 7 11
13 14 13 11 6 7 6 6 6 7 6 7 8 9 14 14 7 7 5 5 5 5
Wind_Direction
90 84 72 79 75 59 62 81 112 75 78 91 86 106 135 143 134 121 132 135 129 128
96 89 91 75 58 58 48 64 73 105 103 90 79 86 89 97 102 115 113 120 120 118
114 105 92 86 73 67 57 64 70 66 68 69 68 64 78 80 76 86 70 89 95 96
122 114 107 103 99 82 76 74 69 81 79 75 66 59 79 76 80 81 79 67 84 85
132 123 110 107 119 124 92 74 94 90 86 77 76 72 78 78 75 88 81 73 80 66
133 126 128 123 122 122 116 107 87 83 88 98 96 89 78 90 85 80 85 87 94 102
155 156 148 133 125 124 126 110 97 90 96 96 98 97 96 96 88 78 68 66 75 83
163 152 142 133 125 116 109 112 113 111 99 103 107 117 112 107 112 112 100 83 85 90
151 147 146 143 132 115 113 113 110 106 114 102 95 119 113 116 113 105 113 115 88 73
152 151 150 135 124 123 130 119 116 117 121 130 138 141 126 124 129 135 142 142 139 116
158 158 150 139 140 133 134 142 144 151 150 142 161 168 150 140 141 144 163 168 178 165
164 159 156 159 160 159 147 155 169 168 168 164 182 177 168 157 162 174 200 203 200 189
168 167 173 172 171 167 158 167 160 173 191 193 191 197 182 166 163 185 204 222 219 207
175 176 178 173 165 162 159 155 179 190 204 209 206 210 200 190 182 196 196 208 216 218